GW2326 Weather Reports


Display with metric or nautical units.
time (UTC)temp
F
wind
direction
speed
MPH
gust
MPH
rain 1hr
in
rain 24hr
in
rain mn
in
humidity
%
barometer
mb
20260504021603 67 360 8.0 11.0 0.00 0.00 0.00 59 1017.3
20260504021052 68 360 8.0 10.0 0.00 0.00 0.00 59 1017.4
20260504020549 68 360 7.0 10.0 0.00 0.00 0.00 58 1017.3
20260504020053 68 360 6.0 8.0 0.00 0.00 0.00 57 1017.2
20260504015550 69 360 5.0 8.0 0.00 0.00 0.00 56 1017.3
20260504015051 69 360 4.0 8.0 0.00 0.00 0.00 55 1017.4
20260504014554 69 360 4.0 8.0 0.00 0.00 0.00 54 1017.3
20260504014049 70 360 6.0 10.0 0.00 0.00 0.00 53 1017.2
20260504013549 70 181 6.0 10.0 0.00 0.00 0.00 52 1017.2
20260504013055 71 194 7.0 10.0 0.00 0.00 0.00 52 1017.1
20260504012550 71 360 7.0 10.0 0.00 0.00 0.00 51 1017.2
20260504012048 72 173 7.0 12.0 0.00 0.00 0.00 50 1017.1
20260504011553 72 184 9.0 12.0 0.00 0.00 0.00 48 1017.1
20260504011047 72 170 8.0 12.0 0.00 0.00 0.00 47 1017.2
20260504010549 73 190 8.0 11.0 0.00 0.00 0.00 47 1017.2
20260504010054 73 360 9.0 12.0 0.00 0.00 0.00 46 1017.3
20260504005550 73 360 9.0 14.0 0.00 0.00 0.00 46 1017.3
20260504005050 73 360 10.0 14.0 0.00 0.00 0.00 46 1017.3
20260504004553 73 360 10.0 15.0 0.00 0.00 0.00 45 1017.2
20260504004049 74 173 11.0 17.0 0.00 0.00 0.00 45 1017.2
20260504003549 74 165 11.0 17.0 0.00 0.00 0.00 44 1017.2
20260504003056 74 172 9.0 16.0 0.00 0.00 0.00 43 1017.2
20260504002549 74 170 10.0 16.0 0.00 0.00 0.00 43 1017.2
20260504002049 74 165 11.0 17.0 0.00 0.00 0.00 43 1017.2
20260504001556 74 167 11.0 17.0 0.00 0.00 0.00 42 1017.3
20260504001050 75 188 9.0 13.0 0.00 0.00 0.00 42 1017.4
20260504000550 75 198 10.0 23.0 0.00 0.00 0.00 41 1017.4
20260504000136 75 191 12.0 23.0 0.00 0.00 0.00 41 1017.6
20260503235549 75 167 14.0 23.0 0.00 0.00 0.00 40 1017.7
20260503235050 75 225 12.0 24.0 0.00 0.00 0.00 39 1017.6
20260503234554 75 200 14.0 25.0 0.00 0.00 0.00 40 1017.5
20260503234050 75 190 15.0 25.0 0.00 0.00 0.00 39 1017.7
20260503233550 76 213 13.0 19.0 0.00 0.00 0.00 39 1017.7
20260503233054 76 214 11.0 17.0 0.00 0.00 0.00 39 1017.9
20260503232553 76 213 10.0 17.0 0.00 0.00 0.00 40 1017.9
20260503232049 76 169 11.0 17.0 0.00 0.00 0.00 40 1017.8
20260503231558 76 213 9.0 23.0 0.00 0.00 0.00 40 1017.8
20260503231050 76 194 13.0 23.0 0.00 0.00 0.00 37 1017.8
20260503230550 76 214 10.0 23.0 0.00 0.00 0.00 38 1017.8
20260503230055 76 176 14.0 23.0 0.00 0.00 0.00 38 1017.7
20260503225549 76 178 14.0 21.0 0.00 0.00 0.00 39 1017.9
20260503225049 76 165 10.0 18.0 0.00 0.00 0.00 37 1017.8
20260503224553 76 187 11.0 18.0 0.00 0.00 0.00 37 1018.0
20260503224049 76 198 11.0 20.0 0.00 0.00 0.00 37 1018.1
20260503223549 76 198 10.0 20.0 0.00 0.00 0.00 37 1018.1
20260503223054 76 167 14.0 20.0 0.00 0.00 0.00 38 1018.3
20260503222549 76 166 11.0 20.0 0.00 0.00 0.00 37 1018.3
20260503222049 76 208 11.0 22.0 0.00 0.00 0.00 37 1018.5
20260503221602 76 175 11.0 22.0 0.00 0.00 0.00 37 1018.4
20260503221052 76 215 12.0 22.0 0.00 0.00 0.00 37 1018.3
20260503220550 76 231 11.0 20.0 0.00 0.00 0.00 37 1018.3
20260503220056 76 169 10.0 18.0 0.00 0.00 0.00 37 1018.4
20260503215549 76 172 10.0 21.0 0.00 0.00 0.00 37 1018.4
20260503215049 76 188 13.0 24.0 0.00 0.00 0.00 36 1018.4
20260503214552 76 185 12.0 24.0 0.00 0.00 0.00 36 1018.4
20260503214051 77 171 13.0 24.0 0.00 0.00 0.00 36 1018.7
20260503213549 77 221 9.0 18.0 0.00 0.00 0.00 36 1018.7
20260503213054 76 219 12.0 18.0 0.00 0.00 0.00 37 1018.9
20260503212550 76 202 9.0 18.0 0.00 0.00 0.00 40 1019.2
20260503212050 76 224 12.0 19.0 0.00 0.00 0.00 38 1019.1
20260503211601 76 228 10.0 19.0 0.00 0.00 0.00 37 1019.3
20260503211049 76 196 8.0 22.0 0.00 0.00 0.00 37 1019.3
20260503210550 76 167 11.0 22.0 0.00 0.00 0.00 38 1019.4
20260503210053 76 209 13.0 29.0 0.00 0.00 0.00 37 1019.6
20260503205550 77 245 11.0 29.0 0.00 0.00 0.00 36 1019.7
20260503205053 76 168 10.0 17.0 0.00 0.00 0.00 37 1019.6
20260503204556 76 188 10.0 22.0 0.00 0.00 0.00 36 1019.8
20260503204049 76 182 13.0 22.0 0.00 0.00 0.00 37 1020.0
20260503203552 76 187 13.0 24.0 0.00 0.00 0.00 37 1020.0
20260503203057 76 195 13.0 24.0 0.00 0.00 0.00 37 1020.1
20260503202549 76 201 9.0 19.0 0.00 0.00 0.00 37 1020.1
20260503202053 76 225 13.0 20.0 0.00 0.00 0.00 38 1020.3
20260503201551 76 218 11.0 24.0 0.00 0.00 0.00 38 1020.4
20260503201051 76 181 9.0 24.0 0.00 0.00 0.00 39 1020.7
20260503200551 76 225 11.0 24.0 0.00 0.00 0.00 38 1020.5
20260503200058 76 192 12.0 24.0 0.00 0.00 0.00 39 1020.8
20260503195549 76 194 10.0 20.0 0.00 0.00 0.00 38 1020.7
20260503195050 76 238 11.0 27.0 0.00 0.00 0.00 39 1020.9
20260503194603 76 217 15.0 27.0 0.00 0.00 0.00 38 1020.8
20260503194050 76 179 14.0 23.0 0.00 0.00 0.00 40 1021.1
20260503193550 75 190 8.0 29.0 0.00 0.00 0.00 38 1021.2
20260503193059 76 231 13.0 32.0 0.00 0.00 0.00 38 1021.4
20260503192549 76 221 13.0 32.0 0.00 0.00 0.00 40 1021.4
20260503192049 75 213 8.0 22.0 0.00 0.00 0.00 39 1021.3
20260503191554 75 192 13.0 22.0 0.00 0.00 0.00 39 1021.7
20260503191052 75 173 9.0 18.0 0.00 0.00 0.00 40 1021.5
20260503190551 75 175 10.0 24.0 0.00 0.00 0.00 41 1021.8
20260503190057 75 232 12.0 24.0 0.00 0.00 0.00 40 1021.8
20260503185549 74 171 13.0 23.0 0.00 0.00 0.00 40 1022.0
20260503185049 74 173 13.0 23.0 0.00 0.00 0.00 40 1022.0
20260503184605 74 171 11.0 23.0 0.00 0.00 0.00 40 1022.0
20260503184050 74 159 15.0 26.0 0.00 0.00 0.00 38 1022.0
20260503183549 74 157 13.0 26.0 0.00 0.00 0.00 41 1022.0
20260503183101 74 191 16.0 24.0 0.00 0.00 0.00 40 1022.1
20260503182549 74 148 9.0 18.0 0.00 0.00 0.00 41 1022.2
20260503182049 74 184 9.0 17.0 0.00 0.00 0.00 42 1022.4
20260503181557 74 169 10.0 18.0 0.00 0.00 0.00 41 1022.4
20260503181050 74 215 11.0 24.0 0.00 0.00 0.00 40 1022.6
20260503180550 74 215 12.0 24.0 0.00 0.00 0.00 38 1022.8
20260503180057 73 219 10.0 21.0 0.00 0.00 0.00 40 1022.7
20260503175550 73 179 16.0 21.0 0.00 0.00 0.00 40 1023.0
20260503175050 73 175 9.0 18.0 0.00 0.00 0.00 39 1023.2
20260503174553 73 203 12.0 18.0 0.00 0.00 0.00 42 1023.2
20260503174049 73 235 12.0 18.0 0.00 0.00 0.00 43 1023.2
20260503173553 73 231 9.0 19.0 0.00 0.00 0.00 42 1023.3
20260503173056 73 223 12.0 19.0 0.00 0.00 0.00 42 1023.3
20260503172549 72 223 12.0 19.0 0.00 0.00 0.00 42 1023.6
20260503172050 72 246 10.0 17.0 0.00 0.00 0.00 44 1023.5
20260503171610 72 360 10.0 22.0 0.00 0.00 0.00 45 1023.4
20260503171053 72 225 14.0 22.0 0.00 0.00 0.00 43 1023.7
20260503170550 72 252 12.0 21.0 0.00 0.00 0.00 45 1023.7
20260503170105 72 228 12.0 18.0 0.00 0.00 0.00 45 1023.8
20260503150547 65 360 11.0 17.0 0.00 0.00 0.00 64 1025.0
20260503131047 55 360 5.0 9.0 0.00 0.00 0.00 81 1024.0
20260503130549 55 360 4.0 8.0 0.00 0.00 0.00 82 1024.0
20260503110550 51 360 6.0 9.0 0.00 0.00 0.00 84 1023.2
20260503090107 53 360 5.0 9.0 0.00 0.00 0.00 83 1023.4
20260503081551 55 360 2.0 5.0 0.00 0.00 0.00 81 1023.4
20260503081050 55 360 3.0 6.0 0.00 0.00 0.00 81 1023.4
20260503080550 55 360 3.0 6.0 0.00 0.00 0.00 81 1023.4
20260503072553 55 360 3.0 5.0 0.00 0.00 0.00 83 1023.4
20260503072051 55 360 3.0 6.0 0.00 0.00 0.00 83 1023.4
20260503071606 54 360 4.0 6.0 0.00 0.00 0.00 83 1023.3
20260503071047 54 360 4.0 6.0 0.00 0.00 0.00 84 1023.4
20260503070550 54 360 4.0 5.0 0.00 0.00 0.00 85 1023.4
20260503055049 56 360 3.0 5.0 0.00 0.00 0.00 82 1023.8
20260503054600 56 360 3.0 4.0 0.00 0.00 0.00 82 1023.8
20260503054049 56 360 2.0 3.0 0.00 0.00 0.00 82 1023.7
20260503053550 56 360 2.0 4.0 0.00 0.00 0.00 82 1023.8
20260503053051 56 360 2.0 4.0 0.00 0.00 0.00 82 1023.8
20260503052552 56 360 3.0 4.0 0.00 0.00 0.00 81 1023.8
20260503052048 57 360 2.0 3.0 0.00 0.00 0.00 81 1023.7
20260503051551 57 360 2.0 5.0 0.00 0.00 0.00 80 1023.7
20260503051048 57 360 2.0 5.0 0.00 0.00 0.00 80 1023.6
20260503050550 57 360 3.0 5.0 0.00 0.00 0.00 80 1023.6
20260503050054 57 360 4.0 5.0 0.00 0.00 0.00 80 1023.5
20260503045550 58 360 3.0 5.0 0.00 0.00 0.00 80 1023.5
20260503045046 58 360 3.0 5.0 0.00 0.00 0.00 79 1023.6
20260503044554 58 360 3.0 5.0 0.00 0.00 0.00 79 1023.7
20260503044049 58 360 3.0 5.0 0.00 0.00 0.00 79 1023.7
20260503043554 58 360 3.0 4.0 0.00 0.00 0.00 78 1023.7
20260503043051 59 360 3.0 5.0 0.00 0.00 0.00 78 1023.8
20260503042553 59 360 2.0 5.0 0.00 0.00 0.00 77 1023.9
20260503042050 59 360 4.0 6.0 0.00 0.00 0.00 76 1023.9
20260503041554 59 360 4.0 6.0 0.00 0.00 0.00 75 1024.0
20260503041049 60 360 4.0 6.0 0.00 0.00 0.00 75 1023.9
20260503040549 60 360 4.0 6.0 0.00 0.00 0.00 75 1023.8
20260503040054 60 360 4.0 6.0 0.00 0.00 0.00 74 1023.8
20260503035549 60 360 4.0 6.0 0.00 0.00 0.00 74 1023.8
20260503035049 60 360 3.0 5.0 0.00 0.00 0.00 74 1023.7
20260503034556 60 360 3.0 4.0 0.00 0.00 0.00 74 1023.4
20260503034049 61 360 1.0 4.0 0.00 0.00 0.00 74 1023.3
20260503033551 61 360 2.0 4.0 0.00 0.00 0.00 73 1023.3
20260503033052 61 360 2.0 3.0 0.00 0.00 0.00 73 1023.2
20260503032547 61 360 2.0 4.0 0.00 0.00 0.00 73 1023.1
20260503032050 62 360 2.0 4.0 0.00 0.00 0.00 72 1023.1
20260503031559 62 360 2.0 4.0 0.00 0.00 0.00 72 1023.0
20260503031050 61 360 2.0 4.0 0.00 0.00 0.00 73 1023.1
20260503030549 62 360 2.0 4.0 0.00 0.00 0.00 74 1023.0
20260503030059 62 360 2.0 4.0 0.00 0.00 0.00 73 1023.1
20260503025549 62 360 3.0 4.0 0.00 0.00 0.00 73 1023.1
20260503025050 63 360 3.0 4.0 0.00 0.00 0.00 71 1023.2
20260503024555 63 360 2.0 5.0 0.00 0.00 0.00 68 1023.1
20260503024049 63 360 2.0 5.0 0.00 0.00 0.00 68 1023.1
20260503023550 64 360 3.0 5.0 0.00 0.00 0.00 67 1023.1
20260503023107 64 360 2.0 6.0 0.00 0.00 0.00 64 1022.9
20260503022548 65 360 4.0 6.0 0.00 0.00 0.00 64 1022.9
20260503022053 65 360 4.0 6.0 0.00 0.00 0.00 60 1022.8